Home > Weather > Bantam > Past weeks

Flag for Cocos Islands Past Weather in Bantam, Cocos Islands — Yesterday and Last 2 Weeks

Now
79 °F

Passing clouds.


Feels Like: 82 °F
Forecast: 79 / 81 °F
Wind: 22 mph from Southeast

Location: Cocos Island Airport

Current Time: Jul 23, 2016 at 11:38:13 PM

Latest Report: Jul 23, 2016 at 10:30 PM


Visibility: N/A

Pressure: 29.86 "Hg

Humidity: 84%

Dew Point: 73 °F

Location of BantamLocation

Past Weather in Bantam — Graph

°F

Bantam Temperature Yesterday

Maximum temperature yesterday: 81 °F (at 12:30 PM)
Minimum temperature yesterday: 75 °F (at 12:30 AM)
Average temperature yesterday: 78 °F

High & Low Weather Summary for the Past Weeks

 TemperatureHumidityPressure
High84 °F (Jul 13, 10:00 AM)100% (Jul 9, 12:30 PM)29.98 "Hg (Jul 9, 12:30 PM)
Low73 °F (Jul 18, 3:00 AM)54% (Jul 11, 9:30 AM)29.77 "Hg (Jul 15, 3:00 PM)
Average79 °F78%29.88 "Hg
* Reported Jul 8 9:30 PM — Jul 23 10:00 PM, Bantam, Weather by CustomWeather, © 2016

Note: Actual official high and low records may vary slightly from our data, if they occured in-between our weather recording intervals... More about our weather records

Advertising

Bantam Weather History for the Previous 24 Hours

Scroll right to see more
 ConditionsComfort  
Time TempWeatherWind HumidityBarometerVisibility
10:00 PM
Sat, Jul 23
79 °FPartly cloudy.23 mph84%29.83 "HgN/A
9:30 PM79 °FMostly cloudy.21 mph84%29.86 "HgN/A
8:30 PM79 °FMostly cloudy.22 mph84%29.83 "HgN/A
8:00 PM79 °FOvercast.23 mph84%29.83 "HgN/A
7:30 PM79 °FOvercast.22 mph84%29.83 "HgN/A
6:32 PM77 °FSprinkles. Cloudy.22 mph89%29.83 "Hg3 mi
6:30 PM77 °FSprinkles. Cloudy.24 mph89%29.83 "Hg3 mi
5:30 PM79 °FCloudy.23 mph84%29.80 "HgN/A
5:00 PM79 °FCloudy.22 mph79%29.80 "HgN/A
4:30 PM79 °FCloudy.24 mph79%29.80 "HgN/A
4:00 PM79 °FBroken clouds.25 mph79%29.80 "HgN/A
3:30 PM79 °FSprinkles. Broken clouds.25 mph84%29.77 "Hg3 mi
2:30 PM79 °FBroken clouds.24 mph79%29.77 "HgN/A
1:30 PM77 °FLight rain. Broken clouds.25 mph83%29.80 "Hg2 mi
1:28 PM77 °FLight rain. Broken clouds.25 mph83%29.83 "Hg4 mi
12:33 PM79 °FMostly cloudy.23 mph84%29.83 "HgN/A
12:00 PM81 °FPartly sunny.24 mph79%29.83 "HgN/A
11:30 AM81 °FBroken clouds.25 mph79%29.83 "HgN/A
11:00 AM81 °FBroken clouds.23 mph79%29.86 "HgN/A
10:30 AM79 °FMostly cloudy.23 mph84%29.86 "HgN/A
10:00 AM79 °FBroken clouds.22 mph84%29.86 "HgN/A
9:30 AM79 °FBroken clouds.21 mph84%29.86 "HgN/A
9:00 AM79 °FPartly sunny.23 mph84%29.86 "HgN/A
8:30 AM79 °FBroken clouds.23 mph79%29.86 "HgN/A
8:00 AM79 °FBroken clouds.23 mph79%29.86 "HgN/A
7:30 AM79 °FBroken clouds.23 mph79%29.83 "HgN/A
7:00 AM77 °FPartly cloudy.21 mph89%29.83 "HgN/A
6:30 AM77 °FPassing clouds.22 mph89%29.83 "HgN/A
6:00 AM77 °FPassing clouds.23 mph83%29.83 "HgN/A
5:30 AM77 °FPartly cloudy.23 mph83%29.83 "HgN/A
5:00 AM77 °FPartly cloudy.22 mph83%29.83 "HgN/A
4:30 AM77 °FPassing clouds.20 mph83%29.83 "HgN/A
3:30 AM77 °FPassing clouds.22 mph79%29.83 "HgN/A
3:00 AM77 °FPartly cloudy.22 mph83%29.83 "HgN/A
2:30 AM77 °FPassing clouds.21 mph83%29.83 "HgN/A
1:30 AM77 °FPartly cloudy.24 mph83%29.86 "HgN/A
1:00 AM77 °FPartly cloudy.23 mph83%29.86 "HgN/A
12:30 AM77 °FOvercast.21 mph83%29.86 "HgN/A
11:30 PM
Fri, Jul 22
77 °FOvercast.22 mph83%29.89 "HgN/A
Weather by CustomWeather, © 2016

See weather overviewHow to use our weather pages